Weather reports worldwide

Advertisment
Lampedusa, Italy (16490): temperature & dewpoint: 20.10.2020 22:00:00 - 26.10.2020 22:00:00 (CET)Lampedusa, Italy (16490): wind speed: 20.10.2020 22:00:00 - 26.10.2020 22:00:00 (CET)Lampedusa, Italy (16490): wind direction: 20.10.2020 22:00:00 - 26.10.2020 22:00:00 (CET)Lampedusa, Italy (16490): reduced air pressure: 20.10.2020 22:00:00 - 26.10.2020 22:00:00 (CET)Lampedusa, Italy (16490): visibility: 20.10.2020 22:00:00 - 26.10.2020 22:00:00 (CET)Lampedusa, Italy (16490): precipitation: 20.10.2020 22:00:00 - 26.10.2020 22:00:00 (CET)
Date & Time tt [°C] td [°C] ff [km/h] ff [kn] dd ppp [hPa] vv [km] rr [mm]
26.10.2020 22:00:00 22,0 19,0 22 12 S - 10 -
26.10.2020 21:00:00 22,0 18,0 22 12 S - 10 -
26.10.2020 20:00:00 22,0 18,0 22 12 S - 10 -
26.10.2020 19:00:00 22,1 17,3 21 11 S 1014,5 10 -
26.10.2020 18:00:00 22,0 17,0 22 12 S - 10 -
26.10.2020 17:00:00 22,0 17,0 21 11 S - 10 -
26.10.2020 16:00:00 22,9 16,5 18 10 S 1014,6 10 0,0
26.10.2020 15:00:00 24,0 16,0 18 10 S - 10 -
26.10.2020 14:00:00 24,0 15,0 21 11 S - 10 -
26.10.2020 13:00:00 23,6 15,0 18 10 S 1016,4 10 -
26.10.2020 12:00:00 23,0 15,0 16 9 S - 10 -
26.10.2020 11:00:00 - - - - - - - -
26.10.2020 10:00:00 22,8 15,3 15 8 S 1018,0 10 0,0
26.10.2020 09:00:00 22,0 15,0 13 7 S - 10 -
26.10.2020 08:00:00 21,0 15,0 15 8 SSE - 10 -
26.10.2020 07:00:00 20,0 14,2 9 5 S 1017,5 10 -
26.10.2020 06:00:00 20,0 14,0 8 4 SSE - 10 -
26.10.2020 05:00:00 19,0 14,0 2 1 - - 10 -
26.10.2020 04:00:00 19,5 13,1 2 1 - 1018,0 10 0,0
26.10.2020 03:00:00 19,0 12,0 2 1 SSW - 10 -
26.10.2020 02:00:00 19,0 13,0 2 1 N - 10 -
26.10.2020 01:00:00 19,5 13,3 5 3 NNW 1019,1 10 -
26.10.2020 00:00:00 20,0 14,0 5 3 N - 10 -
25.10.2020 23:00:00 19,0 14,0 4 2 - - 10 -
25.10.2020 22:00:00 19,5 13,8 5 3 NNW 1020,0 10 0,0
25.10.2020 21:00:00 19,0 14,0 4 2 W - 10 -
25.10.2020 20:00:00 20,0 14,0 2 1 W - 10 -
25.10.2020 19:00:00 20,1 14,2 4 2 NW 1020,0 10 -
25.10.2020 18:00:00 20,0 14,0 9 5 NNW - 10 -
25.10.2020 17:00:00 21,0 14,0 13 7 NNW - 10 -
25.10.2020 16:00:00 21,6 14,0 15 8 NNW 1019,5 10 0,0
25.10.2020 15:00:00 22,0 14,0 16 9 N - 10 -
25.10.2020 14:00:00 23,0 15,0 16 9 N - 10 -
25.10.2020 13:00:00 22,5 14,6 16 9 NW 1020,2 10 -
25.10.2020 12:00:00 23,0 16,0 16 9 NW - 10 -
25.10.2020 11:00:00 23,0 15,0 15 8 NNW - 10 -
25.10.2020 10:00:00 22,4 14,0 15 8 NNW 1021,3 10 0,0
25.10.2020 09:00:00 22,0 15,0 15 8 NNW - 10 -
25.10.2020 08:00:00 21,0 14,0 16 9 NNW - 10 -
25.10.2020 07:00:00 20,7 14,2 16 9 NNW 1021,0 10 -
25.10.2020 06:00:00 21,0 14,0 16 9 NNW - 10 -
25.10.2020 05:00:00 21,0 15,0 21 11 N - 10 -
25.10.2020 04:00:00 21,0 14,7 21 11 N 1020,5 10 0,0
25.10.2020 03:00:00 21,0 15,0 22 12 NNW - 10 -
25.10.2020 02:00:00 21,0 15,0 22 12 NNW - 10 -
25.10.2020 01:00:00 - - - - - - - -
25.10.2020 00:00:00 21,0 15,0 18 10 NNW - 10 -
24.10.2020 23:00:00 21,0 16,0 22 12 NNW - 10 -
24.10.2020 22:00:00 21,5 16,5 26 14 NNW 1021,6 10 0,0
24.10.2020 21:00:00 21,0 17,0 24 13 N - 10 -
24.10.2020 20:00:00 22,0 17,0 26 14 N - 10 -
24.10.2020 19:00:00 21,5 17,6 24 13 N 1020,9 10 -
24.10.2020 18:00:00 22,0 18,0 26 14 N - 10 -
24.10.2020 17:00:00 22,0 17,0 26 14 NNW - 10 -
24.10.2020 16:00:00 22,4 17,5 29 16 NNW 1020,6 10 0,0
24.10.2020 15:00:00 23,0 18,0 26 14 NNW - 10 -
24.10.2020 14:00:00 23,0 18,0 28 15 NNW - 10 -
24.10.2020 13:00:00 23,0 18,5 22 12 NNW 1021,6 10 -
24.10.2020 12:00:00 23,0 19,0 21 11 NNW - 10 -
24.10.2020 11:00:00 23,0 18,0 24 13 NNW - 10 -
24.10.2020 10:00:00 22,8 18,7 21 11 N 1022,3 10 0,0
24.10.2020 09:00:00 23,0 18,0 18 10 N - 10 -
24.10.2020 08:00:00 22,0 18,0 22 12 N - 10 -
24.10.2020 07:00:00 21,7 18,6 26 14 N 1021,6 10 -
24.10.2020 06:00:00 22,0 20,0 15 8 NNW - 10 -
24.10.2020 05:00:00 21,0 19,0 5 3 NW - 10 -
24.10.2020 04:00:00 20,9 18,9 8 4 NW 1021,7 10 0,0
24.10.2020 03:00:00 21,0 18,0 5 3 NNW - 10 -
24.10.2020 02:00:00 21,0 18,0 2 1 WNW - 10 -
24.10.2020 01:00:00 21,3 18,4 0 0 N 1021,9 10 -
24.10.2020 00:00:00 22,0 19,0 8 4 SSE - 10 -
23.10.2020 23:00:00 22,0 19,0 11 6 SSE - 10 -
23.10.2020 22:00:00 22,0 18,8 11 6 SE 1022,2 10 0,0
23.10.2020 21:00:00 22,0 19,0 5 3 SSE - 10 -
23.10.2020 20:00:00 22,0 19,0 15 8 SSE - 10 -
23.10.2020 19:00:00 22,4 18,8 15 8 SSE 1021,6 10 -
23.10.2020 18:00:00 23,0 19,0 11 6 SE - 10 -
23.10.2020 17:00:00 23,0 19,0 11 6 SE - 10 -
23.10.2020 16:00:00 23,6 18,5 11 6 SSE 1021,2 10 0,0
23.10.2020 15:00:00 24,0 18,0 18 10 SSE - 10 -
23.10.2020 14:00:00 24,0 18,0 16 9 SSE - 10 -
23.10.2020 13:00:00 23,9 18,0 18 10 SSE 1021,8 10 -
23.10.2020 12:00:00 24,0 18,0 18 10 SSE - 10 -
23.10.2020 11:00:00 24,0 18,0 22 12 SSE - 10 -
23.10.2020 10:00:00 23,7 17,8 18 10 SSE 1023,3 10 0,0
23.10.2020 09:00:00 23,0 17,0 16 9 SE - 10 -
23.10.2020 08:00:00 22,0 17,0 16 9 SE - 10 -
23.10.2020 07:00:00 21,8 17,0 16 9 SE 1022,1 10 -
23.10.2020 06:00:00 22,0 17,0 18 10 SE - 10 -
23.10.2020 05:00:00 22,0 17,0 21 11 SE - 10 -
23.10.2020 04:00:00 21,4 16,1 18 10 SE 1021,9 10 0,0
23.10.2020 03:00:00 21,0 16,0 21 11 SE - 10 -
23.10.2020 02:00:00 21,0 15,0 21 11 SSE - 10 -
23.10.2020 01:00:00 21,4 14,4 16 9 SE 1022,9 10 -
23.10.2020 00:00:00 22,0 14,0 21 11 SE - 10 -
22.10.2020 23:00:00 22,0 14,0 18 10 SE - 10 -
22.10.2020 22:00:00 21,6 14,9 21 11 SE 1023,4 10 0,0
22.10.2020 21:00:00 22,0 15,0 21 11 ESE - 10 -
22.10.2020 20:00:00 22,0 15,0 21 11 ESE - 10 -
22.10.2020 19:00:00 21,7 15,1 22 12 ESE 1023,3 10 -
22.10.2020 18:00:00 22,0 15,0 22 12 SE - 10 -
22.10.2020 17:00:00 22,0 16,0 22 12 SE - 10 -
22.10.2020 16:00:00 22,9 15,2 22 12 SE 1022,7 10 0,0
22.10.2020 15:00:00 23,0 15,0 26 14 SE - 10 -
22.10.2020 14:00:00 24,0 15,0 24 13 SE - 10 -
22.10.2020 13:00:00 23,8 15,6 26 14 SE 1023,5 10 -
22.10.2020 12:00:00 24,0 16,0 24 13 SE - 10 -
22.10.2020 11:00:00 24,0 16,0 26 14 SE - 10 -
22.10.2020 10:00:00 23,4 16,5 26 14 SE 1024,6 10 0,0
22.10.2020 09:00:00 23,0 16,0 21 11 SE - 10 -
22.10.2020 08:00:00 23,0 17,0 22 12 SE - 10 -
22.10.2020 07:00:00 22,0 15,7 22 12 SSE 1023,3 10 -
22.10.2020 06:00:00 22,0 16,0 21 11 SE - 10 -
22.10.2020 05:00:00 22,0 17,0 24 13 SSE - 10 -
22.10.2020 04:00:00 22,1 17,0 26 14 SSE 1022,8 10 0,0
22.10.2020 03:00:00 22,0 17,0 28 15 SSE - 10 -
22.10.2020 02:00:00 22,0 17,0 28 15 SSE - 10 -
22.10.2020 01:00:00 22,3 16,8 28 15 SSE 1023,6 10 -
22.10.2020 00:00:00 22,0 17,0 26 14 SE - 10 -
21.10.2020 23:00:00 22,0 17,0 24 13 SE - 10 -
21.10.2020 22:00:00 22,4 17,5 26 14 SSE 1023,6 10 0,0
21.10.2020 21:00:00 23,0 18,0 29 16 SSE - 10 -
21.10.2020 20:00:00 23,0 17,0 22 12 SE - 10 -
21.10.2020 19:00:00 22,1 17,2 16 9 ESE 1022,7 10 -
21.10.2020 18:00:00 22,0 17,0 15 8 ESE - 10 -
21.10.2020 17:00:00 23,0 16,0 15 8 ESE - 10 -
21.10.2020 16:00:00 22,7 16,5 13 7 ESE 1022,2 10 0,0
21.10.2020 15:00:00 24,0 17,0 13 7 ESE - 10 -
21.10.2020 14:00:00 23,0 16,0 11 6 ESE - 10 -
21.10.2020 13:00:00 23,3 16,4 13 7 ESE 1023,0 10 -
21.10.2020 12:00:00 23,0 16,0 11 6 ESE - 10 -
21.10.2020 11:00:00 23,0 15,0 11 6 SE - 10 -
21.10.2020 10:00:00 23,0 14,7 9 5 SSE 1024,2 10 0,0
21.10.2020 09:00:00 23,0 15,0 9 5 S - 10 -
21.10.2020 08:00:00 22,0 15,0 11 6 S - 10 -
21.10.2020 07:00:00 21,2 15,1 11 6 S 1022,6 10 -
21.10.2020 06:00:00 21,0 15,0 15 8 SSE - 10 -
21.10.2020 05:00:00 21,0 16,0 15 8 SSE - 10 -
21.10.2020 04:00:00 20,9 15,0 16 9 SE 1022,2 10 0,0
21.10.2020 03:00:00 21,0 14,0 11 6 S - 10 -
21.10.2020 02:00:00 21,0 14,0 13 7 SSE - 10 -
21.10.2020 01:00:00 20,5 12,9 11 6 SSE 1023,0 10 -
21.10.2020 00:00:00 20,0 15,0 9 5 SSE - 10 -
20.10.2020 23:00:00 20,0 15,0 11 6 SE - 10 -
20.10.2020 22:00:00 20,4 15,3 9 5 SE 1023,7 10 0,0

tt = temperature
td = dewpoint
ff = wind speed
dd = wind direction
ppp = reduced air pressure
vv = visibility
rr = precipitation

Next stations